Phoenix Deer Valley, AZ

4:21 PM MST on April 21, 2018 (GMT -0700)
Phoenix-Deer Valley Municipal

Weather History for KDVT - September, 2012

Change the Weather History Date:

Wednesday, September 19, 2012

  Actual Average Record
Temperature  
Mean Temperature 86 °F -  
Max Temperature 100 °F 94 °F 106 °F (2010)
Min Temperature 73 °F 73 °F 66 °F (2017)
Cooling Degree Days 22    
Growing Degree Days 36 (Base 50)    
Moisture  
Dew Point 41 °F    
Average Humidity 21    
Maximum Humidity 38    
Minimum Humidity 11    
Precipitation  
Precipitation 0.00 in - - ()
Sea Level Pressure  
Sea Level Pressure 29.85 in    
Wind  
Wind Speed 2 mph (WNW)    
Max Wind Speed 7 mph    
Max Gust Speed -    
Visibility 10 miles    
Events      
Averages and records for this station are not official NWS values.
T = Trace of Precipitation, MM = Missing Value Source: NWS Daily Summary

Daily Weather History Graph

Daily Weather History Graph

Search for Another Location

Airport or City:

Astronomy

Sep. 19, 2012 Rise Set
Actual Time 6:14 AM MST 6:28 PM MST
Civil Twilight 5:49 AM MST 6:53 PM MST
Nautical Twilight 5:20 AM MST 7:22 PM MST
Astronomical Twilight 4:51 AM MST 7:51 PM MST
Moon 10:14 AM MST (9/19) 8:56 PM MST (9/19)
Length of Visible Light 13h 03m
Length of Day
12h 13m
Waxing Crescent, 18% of the Moon is Illuminated
Sep 19
Waxing Crescent
Sep 22
First Quarter
Sep 29
Full
Oct 8
Last Quarter
Oct 15
New

Hourly Weather History & Observations

Time (MST) Temp. Dew Point Humidity Pressure Visibility Wind Dir Wind Speed Gust Speed Precip Events Conditions
12:53 AM 78.1 °F 46.9 °F 33% 29.86 in 10.0 mi Calm Calm - N/A   Clear
1:53 AM 75.0 °F 48.0 °F 38% 29.86 in 10.0 mi Calm Calm - N/A   Clear
2:53 AM 75.9 °F 45.0 °F 33% 29.85 in 10.0 mi Calm Calm - N/A   Clear
3:53 AM 75.0 °F 45.0 °F 34% 29.86 in 10.0 mi Calm Calm - N/A   Clear
4:53 AM 73.9 °F 45.0 °F 35% 29.86 in 10.0 mi Calm Calm - N/A   Clear
6:53 AM 77.0 °F 43.0 °F 30% 29.90 in 10.0 mi NE 4.6 mph - N/A   Clear
7:53 AM 81.0 °F 43.0 °F 26% 29.91 in 10.0 mi NNE 3.5 mph - N/A   Clear
8:53 AM 86.0 °F 42.1 °F 21% 29.92 in 10.0 mi NW 4.6 mph - N/A   Clear
9:53 AM 90.0 °F 39.9 °F 17% 29.92 in 10.0 mi Calm Calm - N/A   Clear
10:53 AM 91.9 °F 42.1 °F 18% 29.91 in 10.0 mi SSW 4.6 mph - N/A   Clear
11:53 AM 95.0 °F 41.0 °F 15% 29.89 in 10.0 mi Variable 3.5 mph - N/A   Clear
12:53 PM 98.1 °F 41.0 °F 14% 29.86 in 10.0 mi NE 4.6 mph - N/A   Clear
1:53 PM 100.0 °F 39.0 °F 12% 29.83 in 10.0 mi SW 5.8 mph - N/A   Clear
2:53 PM 100.0 °F 36.0 °F 11% 29.81 in 10.0 mi Variable 4.6 mph - N/A   Clear
3:53 PM 100.0 °F 37.0 °F 11% 29.79 in 10.0 mi SW 6.9 mph - N/A   Clear
4:53 PM 99.0 °F 37.0 °F 12% 29.80 in 10.0 mi SW 6.9 mph - N/A   Clear
5:53 PM 98.1 °F 37.0 °F 12% 29.79 in 10.0 mi WSW 5.8 mph - N/A   Clear
6:53 PM 95.0 °F 37.0 °F 13% 29.80 in 10.0 mi WSW 4.6 mph - N/A   Clear
7:53 PM 90.0 °F 41.0 °F 18% 29.81 in 10.0 mi Calm Calm - N/A   Clear
8:53 PM 88.0 °F 42.1 °F 20% 29.83 in 10.0 mi North 4.6 mph - N/A   Clear
9:53 PM 87.1 °F 39.9 °F 19% 29.83 in 10.0 mi Calm Calm - N/A   Clear
10:53 PM 82.0 °F 43.0 °F 25% 29.84 in 10.0 mi Calm Calm - N/A   Clear
11:53 PM 82.9 °F 39.9 °F 22% 29.83 in 10.0 mi NNE 5.8 mph - N/A   Clear